Weather WX

World > North America > United States > Missouri

Dixon, Missouri Regional Weather

Lat: 37.99N, Lon: 92.09W
Wx Zone: MOZ070
Warning FLW WEATHER ALERT - (More Info. Click Here) Warning
Feedback

Dixon, MO Regional Weather

Expires:201906200400;;763307
ASUS43 KLSX 200307
RWRMO 

WEATHER SUMMARY FOR MISSOURI
NATIONAL WEATHER SERVICE SPRINGFIELD MO
1000 PM CDT WED JUN 19 2019

NOTE: "FAIR" INDICATES FEW OR NO CLOUDS BELOW 12,000 FEET WITH NO
       SIGNIFICANT WEATHER AND/OR OBSTRUCTIONS TO VISIBILITY.
       CURRENT SKY AND/OR WEATHER CONDITIONS ARE NOT AVAILABLE FOR
       CHILLICOTHE AND FARMINGTON.


MOZ032>034-039>042-045>050-055>058-069>072-200400-
...CENTRAL MISSOURI...  
  
CITY           SKY/WX    TMP DP  RH WIND       PRES   REMARKS
COLUMBIA       MOCLDY    70  64  81 NW8       29.68R                  
ROLLA          PTCLDY    69  66  90 W7        29.69S                  
SEDALIA        PTCLDY    64  64 100 NW6       29.72R                  
WHITEMAN AFB   PTCLDY    67  65  93 N6        29.67R                  
WARRENSBURG    CLEAR     66  61  82 NW3       29.72R                  
OSAGE BEACH    MOCLDY    68  67  96 CALM      29.71R                  
               
$$

SKY/WX - Weather  TMP - Temperature  DP - Dew Point  RH - Relative Humidity
WIND - Wind Direction/Speed PRES - Barometric Pressure VSB - Visibility
WCI - Wind Chill Index E13G22 Wind - East Wind 13 mph/Gusts of 22 mph